DW9313 Weather Reports


time (UTC)temp
C
wind
direction
speed
KPH
gust
KPH
rain 1hr
cm
rain 24hr
cm
rain mn
cm
humidity
%
barometer
mb
20260504050330 9 302 1.6 4.8 0.00 0.05 0.00 93 1013.6
20260504045831 9 312 1.6 4.8 0.00 0.05 0.00 93 1013.6
20260504045330 9 306 1.6 4.8 0.00 0.05 0.00 93 1013.6
20260504044830 9 307 1.6 4.8 0.00 0.05 0.00 93 1013.6
20260504043831 9 312 1.6 3.2 0.00 0.05 0.00 93 1013.6
20260504043330 8 311 3.2 8.0 0.00 0.05 0.00 92 1013.6
20260504042830 9 312 3.2 4.8 0.00 0.05 0.00 92 1013.6
20260504042331 9 311 3.2 8.0 0.00 0.05 0.00 92 1013.6
20260504040831 9 304 8.0 11.3 0.00 0.05 0.00 92 1013.6
20260504040331 9 317 4.8 9.7 0.00 0.05 0.00 92 1013.6
20260504035830 9 319 6.4 9.7 0.00 0.05 0.00 92 1013.6
20260504035331 9 311 4.8 9.7 0.00 0.05 0.00 92 1013.6
20260504034331 9 311 3.2 9.7 0.00 0.05 0.00 91 1013.5
20260504033831 9 315 4.8 9.7 0.00 0.05 0.00 91 1013.5
20260504033331 9 303 4.8 9.7 0.00 0.05 0.00 91 1013.4
20260504032832 9 307 3.2 8.0 0.00 0.05 0.00 91 1013.3
20260504032330 9 308 1.6 4.8 0.00 0.05 0.00 91 1013.3
20260504031831 9 319 0.0 3.2 0.00 0.05 0.00 91 1013.3
20260504031331 9 311 1.6 3.2 0.00 0.05 0.00 91 1013.2
20260504030831 9 313 3.2 8.0 0.00 0.05 0.00 91 1013.2
20260504030331 8 312 3.2 9.7 0.00 0.05 0.00 91 1013.2
20260504025831 8 308 3.2 8.0 0.00 0.05 0.00 91 1013.2
20260504025332 8 311 3.2 9.7 0.00 0.05 0.00 91 1013.2
20260504024331 8 311 3.2 8.0 0.00 0.05 0.00 90 1013.2
20260504023831 9 318 1.6 4.8 0.00 0.05 0.00 90 1013.2
20260504023332 9 311 1.6 3.2 0.00 0.05 0.00 90 1013.1
20260504022331 9 315 1.6 3.2 0.00 0.05 0.00 89 1013.1
20260504021831 9 314 1.6 4.8 0.00 0.05 0.00 89 1013.1
20260504021333 9 320 3.2 8.0 0.00 0.05 0.00 89 1013.1
20260504020831 9 314 3.2 9.7 0.00 0.05 0.00 89 1013.2
20260504015834 10 312 3.2 8.0 0.00 0.05 0.00 88 1013.1
20260504015332 10 315 3.2 8.0 0.00 0.05 0.00 88 1013.1
20260504014831 10 305 3.2 8.0 0.00 0.05 0.00 88 1013.2
20260504014333 10 308 1.6 3.2 0.00 0.05 0.00 88 1013.2
20260504013831 10 303 1.6 3.2 0.00 0.05 0.00 88 1013.2
20260504013332 10 315 1.6 3.2 0.00 0.05 0.00 88 1013.1
20260504012833 10 302 0.0 1.6 0.00 0.05 0.00 88 1013.2
20260504012332 10 305 0.0 3.2 0.00 0.05 0.00 88 1013.1
20260504011832 10 306 1.6 4.8 0.00 0.05 0.00 88 1013.2
20260504011333 10 300 3.2 4.8 0.00 0.05 0.00 88 1013.2
20260504010831 10 309 1.6 9.7 0.00 0.05 0.00 88 1013.2
20260504010333 10 316 3.2 9.7 0.00 0.05 0.00 88 1013.2
20260504005831 10 312 3.2 8.0 0.00 0.05 0.00 88 1013.0
20260504005333 10 302 1.6 3.2 0.00 0.05 0.00 87 1013.1
20260504004833 10 280 0.0 3.2 0.00 0.05 0.00 87 1013.1
20260504004332 10 296 0.0 3.2 0.00 0.05 0.00 87 1013.1
20260504003832 11 307 1.6 3.2 0.00 0.05 0.00 87 1013.0
20260504002831 11 301 0.0 3.2 0.00 0.05 0.00 86 1012.9
20260504002333 11 299 1.6 8.0 0.00 0.05 0.00 87 1012.8
20260504001332 11 302 1.6 1.6 0.00 0.05 0.00 86 1012.8
20260504000332 11 281 0.0 1.6 0.00 0.05 0.00 86 1012.8
20260503235833 11 288 0.0 1.6 0.00 0.05 0.00 86 1012.8
20260503235333 11 284 0.0 3.2 0.00 0.05 0.00 86 1012.8
20260503234333 11 235 0.0 1.6 0.00 0.05 0.00 86 1012.7
20260503233833 11 298 0.0 3.2 0.00 0.05 0.00 86 1012.6
20260503233332 11 232 0.0 1.6 0.00 0.05 0.00 86 1012.6
20260503232834 11 265 0.0 3.2 0.00 0.05 0.00 86 1012.6
20260503231333 11 331 0.0 1.6 0.00 0.05 0.00 87 1012.5
20260503230850 11 249 0.0 1.6 0.00 0.05 0.00 87 1012.4
20260503230333 11 93 0.0 0.0 0.00 0.05 0.00 87 1012.5
20260503225833 11 93 0.0 0.0 0.00 0.05 0.05 88 1012.5
20260503225334 11 91 0.0 0.0 0.00 0.05 0.05 88 1012.4
20260503224833 11 91 0.0 1.6 0.00 0.05 0.05 89 1012.3
20260503224732 11 91 0.0 3.2 0.00 0.05 0.05 89 1012.3
20260503224234 11 110 0.0 1.6 0.00 0.05 0.05 90 1012.3
20260503223734 11 102 0.0 0.0 0.00 0.05 0.05 91 1012.3
20260503223232 11 102 0.0 1.6 0.00 0.05 0.05 91 1012.3
20260503222732 11 102 0.0 1.6 0.00 0.05 0.05 92 1012.3
20260503222232 11 103 0.0 1.6 0.00 0.05 0.05 92 1012.2
20260503221732 11 99 0.0 1.6 0.00 0.05 0.05 93 1012.2
20260503221233 11 99 0.0 1.6 0.00 0.05 0.05 93 1012.2
20260503220733 11 98 0.0 0.0 0.00 0.05 0.05 93 1012.3
20260503215733 11 98 0.0 0.0 0.00 0.08 0.05 93 1012.2
20260503215232 11 98 0.0 0.0 0.00 0.08 0.05 93 1012.2
20260503214733 11 94 0.0 1.6 0.00 0.08 0.05 93 1012.1
20260503213734 11 106 0.0 1.6 0.00 0.08 0.05 93 1012.1
20260503213233 11 135 0.0 0.0 0.00 0.08 0.05 93 1012.0
20260503212734 11 195 0.0 0.0 0.00 0.08 0.05 93 1011.9
20260503212234 11 288 0.0 0.0 0.00 0.08 0.05 93 1011.9
20260503211734 11 288 0.0 0.0 0.00 0.10 0.05 93 1011.8
20260503211234 11 288 0.0 0.0 0.00 0.10 0.05 93 1011.8
20260503210734 11 287 0.0 0.0 0.00 0.10 0.05 93 1011.8
20260503210233 11 288 0.0 1.6 0.00 0.13 0.05 93 1011.7
20260503205734 11 291 0.0 1.6 0.00 0.13 0.05 93 1011.6
20260503205233 11 291 0.0 1.6 0.00 0.13 0.05 93 1011.6
20260503204733 11 291 0.0 1.6 0.00 0.13 0.05 93 1011.5
20260503204233 11 291 0.0 0.0 0.00 0.13 0.05 92 1011.5
20260503203735 11 291 0.0 1.6 0.00 0.13 0.05 92 1011.5
20260503203235 11 291 0.0 1.6 0.00 0.13 0.05 92 1011.4
20260503202735 11 277 0.0 1.6 0.00 0.13 0.05 92 1011.3
20260503202234 11 283 0.0 1.6 0.00 0.13 0.05 92 1011.3
20260503201733 11 285 0.0 1.6 0.00 0.13 0.05 92 1011.3
20260503201234 11 301 0.0 1.6 0.00 0.13 0.05 92 1011.2
20260503200734 12 283 0.0 1.6 0.00 0.13 0.05 92 1011.2
20260503200234 12 292 1.6 4.8 0.00 0.13 0.05 92 1011.1
20260503195734 12 297 0.0 1.6 0.00 0.13 0.05 91 1011.1
20260503195234 12 287 0.0 3.2 0.00 0.13 0.05 91 1010.9
20260503194734 12 273 0.0 1.6 0.00 0.13 0.05 91 1010.9
20260503193734 12 288 0.0 1.6 0.00 0.13 0.05 91 1010.9
20260503193235 12 307 0.0 1.6 0.00 0.13 0.05 91 1010.8
20260503191735 12 286 0.0 1.6 0.00 0.13 0.05 91 1010.7
20260503191234 12 293 0.0 3.2 0.00 0.13 0.05 90 1010.6
20260503190734 12 285 1.6 3.2 0.00 0.13 0.05 90 1010.6
20260503190234 12 280 1.6 3.2 0.00 0.13 0.05 90 1010.5
20260503185736 12 298 0.0 4.8 0.00 0.13 0.05 90 1010.5
20260503185234 12 294 1.6 3.2 0.00 0.13 0.05 90 1010.5
20260503184735 12 281 1.6 3.2 0.00 0.13 0.05 90 1010.4
20260503184234 12 283 1.6 3.2 0.00 0.13 0.05 90 1010.4
20260503183234 12 295 1.6 4.8 0.00 0.13 0.05 90 1010.4
20260503182735 12 275 0.0 3.2 0.00 0.13 0.05 90 1010.3
20260503182234 12 294 0.0 3.2 0.00 0.13 0.05 90 1010.4
20260503181736 12 304 0.0 3.2 0.00 0.13 0.05 90 1010.3
20260503181235 12 287 0.0 3.2 0.00 0.13 0.05 90 1010.3
20260503180735 12 283 0.0 3.2 0.00 0.13 0.05 90 1010.3
20260503175736 12 301 1.6 4.8 0.00 0.13 0.05 88 1010.3
20260503175235 12 286 0.0 1.6 0.00 0.13 0.05 87 1010.3
20260503174237 12 162 0.0 0.0 0.00 0.13 0.05 87 1010.3
20260503173735 12 163 0.0 0.0 0.00 0.13 0.05 87 1010.3
20260503172735 13 132 0.0 1.6 0.00 0.13 0.05 87 1010.2
20260503172235 13 134 0.0 1.6 0.00 0.13 0.05 86 1010.2
20260503171735 13 142 0.0 4.8 0.00 0.13 0.05 86 1010.1
20260503171235 13 142 0.0 1.6 0.00 0.13 0.05 86 1010.1
20260503170735 13 143 1.6 4.8 0.00 0.13 0.05 85 1010.0
20260503170236 13 132 0.0 4.8 0.00 0.13 0.05 86 1010.0
20260503150736 14 102 3.2 12.9 0.00 0.15 0.05 81 1010.0
20260503150236 14 105 9.7 12.9 0.00 0.15 0.05 80 1009.9
20260503140238 13 99 4.8 11.3 0.00 0.18 0.05 82 1010.1
20260503131237 13 122 1.6 8.0 0.00 0.23 0.05 85 1010.4
20260503130737 13 104 1.6 4.8 0.00 0.23 0.05 87 1010.4
20260503130237 13 95 1.6 4.8 0.00 0.23 0.05 86 1010.4
20260503110738 12 100 0.0 1.6 0.00 0.23 0.05 92 1010.4
20260503110240 11 122 0.0 1.6 0.00 0.23 0.05 92 1010.4
20260503100238 11 97 0.0 1.6 0.00 0.23 0.05 95 1010.2
20260503090239 10 97 3.2 9.7 0.00 0.23 0.05 95 1010.2
20260503081240 11 107 0.0 4.8 0.05 0.23 0.05 96 1009.9
20260503080740 11 130 0.0 1.6 0.05 0.23 0.05 96 1009.9
20260503080241 11 110 0.0 1.6 0.05 0.23 0.05 96 1009.9
20260503072239 11 97 0.0 8.0 0.00 0.20 0.00 96 1009.7
20260503070739 11 107 1.6 4.8 0.00 0.20 0.00 97 1009.6
20260503070240 11 102 1.6 4.8 0.00 0.20 0.00 97 1009.5
20260503060240 10 101 0.0 1.6 0.00 0.20 0.00 97 1009.3
20260503054742 10 108 1.6 4.8 0.00 0.20 0.00 97 1009.2
20260503054242 10 101 1.6 4.8 0.00 0.20 0.00 96 1009.1
20260503053741 10 106 1.6 4.8 0.00 0.20 0.00 96 1009.1
20260503053241 10 103 0.0 1.6 0.00 0.20 0.00 96 1009.1
20260503052742 10 105 1.6 3.2 0.00 0.20 0.00 96 1009.1